TimeCDT,TemperatureF,Dew PointF,Humidity,Sea Level PressureIn,VisibilityMPH,Wind Direction,Wind SpeedMPH,Gust SpeedMPH,PrecipitationIn,Events,Conditions,WindDirDegrees,DateUTC
12:53 AM,61.0,43.0,52,30.11,10.0,ESE,3.5,-,N/A,,Overcast,110,2012-10-11 05:53:00
1:53 AM,61.0,45.0,56,30.10,10.0,ESE,5.8,-,N/A,,Overcast,120,2012-10-11 06:53:00
2:53 AM,62.1,46.0,56,30.09,10.0,SE,4.6,-,N/A,,Overcast,140,2012-10-11 07:53:00
3:53 AM,63.0,46.0,54,30.09,10.0,SSE,8.1,-,N/A,,Overcast,150,2012-10-11 08:53:00
4:25 AM,62.6,46.4,55,30.10,10.0,SSE,8.1,-,N/A,,Overcast,160,2012-10-11 09:25:00
4:53 AM,63.0,46.0,54,30.08,10.0,SSE,9.2,-,N/A,,Overcast,160,2012-10-11 09:53:00
5:53 AM,63.0,46.9,56,30.09,10.0,SSE,6.9,-,N/A,,Overcast,150,2012-10-11 10:53:00
6:53 AM,63.0,46.9,56,30.10,10.0,SSE,8.1,-,N/A,,Overcast,160,2012-10-11 11:53:00
7:53 AM,63.0,48.9,60,30.11,10.0,SSE,11.5,-,N/A,,Overcast,160,2012-10-11 12:53:00
8:53 AM,63.0,50.0,63,30.11,10.0,South,9.2,-,N/A,,Overcast,170,2012-10-11 13:53:00
9:53 AM,64.9,52.0,63,30.12,10.0,South,13.8,-,N/A,,Overcast,170,2012-10-11 14:53:00
10:53 AM,66.0,55.0,68,30.12,10.0,South,13.8,-,N/A,,Overcast,170,2012-10-11 15:53:00
11:53 AM,68.0,57.0,68,30.11,10.0,South,11.5,-,N/A,,Overcast,180,2012-10-11 16:53:00
12:53 PM,70.0,60.1,71,30.09,10.0,South,9.2,-,N/A,,Overcast,170,2012-10-11 17:53:00
1:53 PM,73.0,62.1,68,30.05,10.0,South,15.0,-,N/A,,Overcast,180,2012-10-11 18:53:00
2:09 PM,71.6,62.6,73,30.06,10.0,South,12.7,-,N/A,,Overcast,190,2012-10-11 19:09:00
2:53 PM,75.2,62.6,65,30.03,10.0,South,13.8,20.7,N/A,,Mostly Cloudy,180,2012-10-11 19:53:00
3:53 PM,78.1,64.9,64,30.01,10.0,SW,17.3,29.9,N/A,,Mostly Cloudy,220,2012-10-11 20:53:00
4:21 PM,75.2,64.4,69,30.03,10.0,SSW,13.8,26.5,N/A,,Mostly Cloudy,200,2012-10-11 21:21:00
4:53 PM,75.9,64.0,67,30.01,10.0,South,13.8,-,N/A,,Overcast,180,2012-10-11 21:53:00
5:22 PM,77.0,64.4,65,30.01,10.0,South,12.7,23.0,N/A,,Mostly Cloudy,190,2012-10-11 22:22:00
5:53 PM,77.0,64.4,65,30.01,10.0,South,11.5,-,N/A,,Mostly Cloudy,190,2012-10-11 22:53:00
6:53 PM,75.0,64.9,71,30.01,10.0,SSW,5.8,-,N/A,,Mostly Cloudy,200,2012-10-11 23:53:00
7:53 PM,71.6,64.4,78,30.04,10.0,East,4.6,-,N/A,,Overcast,100,2012-10-12 00:53:00
8:53 PM,69.1,63.0,81,30.04,10.0,ESE,5.8,-,N/A,,Mostly Cloudy,120,2012-10-12 01:53:00
9:53 PM,72.0,63.0,73,30.07,10.0,ENE,4.6,-,N/A,,Overcast,60,2012-10-12 02:53:00
10:53 PM,70.0,63.0,78,30.09,10.0,ESE,4.6,-,N/A,,Mostly Cloudy,110,2012-10-12 03:53:00
11:53 PM,70.0,64.0,81,30.09,10.0,SE,9.2,-,N/A,,Overcast,130,2012-10-12 04:53:00